Weather History for KOLF - November, 2012

Change the Weather History Date:

Wednesday, November 28, 2012

  Actual Average Record
Temperature  
Mean Temperature 25 °F -  
Max Temperature 35 °F 33 °F 57 °F (2002)
Min Temperature 14 °F 9 °F -6 °F (2006)
Degree Days  
Heating Degree Days 40    
Cooling Degree Days 0    
Moisture  
Dew Point 17 °F    
Average Humidity 86    
Maximum Humidity 93    
Minimum Humidity 72    
Precipitation  
Precipitation 0.00 in 0.01 in 0.01 in (2014)
Month to date precipitation 0.28 0.37  
Year to date precipitation 10.15 11.86  
Sea Level Pressure  
Sea Level Pressure 30.10 in    
Wind  
Wind Speed 5 mph (ENE)    
Max Wind Speed 14 mph    
Max Gust Speed -    
Visibility 9 miles    
Events      
T = Trace of Precipitation, MM = Missing Value Source: NWS Daily Summary

Daily Weather History Graph

Daily Weather History Graph

Search for Another Location

Airport or City:

Trip Planner

Search our weather history database for the weather conditions in past years. The results will help you decide how hot, cold, wet, or windy it might be!

Date:

Astronomy

Nov. 28, 2012 Rise Set
Actual Time 7:28 AM MST 4:12 PM MST
Civil Twilight 6:52 AM MST 4:47 PM MST
Nautical Twilight 6:14 AM MST 5:26 PM MST
Astronomical Twilight 5:36 AM MST 6:03 PM MST
Moon 4:28 PM MST 7:28 AM MST
Length of Visible Light 9h 54m
Length of Day
8h 44m
Full, 100% of the Moon is Illuminated
Nov 28
Full
Dec 6
Last Quarter
Dec 13
New
Dec 19
First Quarter
Dec 28
Full

Hourly Weather History & Observations

Time (MST) Temp. Windchill Dew Point Humidity Pressure Visibility Wind Dir Wind Speed Gust Speed Precip Events Conditions
12:53 AM 16.0 °F 10.4 °F 12.0 °F 84% 30.20 in 10.0 mi NE 3.5 mph - N/A   Clear
1:53 AM 18.0 °F 12.7 °F 12.9 °F 81% 30.17 in 10.0 mi ENE 3.5 mph - N/A   Clear
2:53 AM 18.0 °F 12.7 °F 14.0 °F 84% 30.15 in 10.0 mi East 3.5 mph - N/A   Clear
3:53 AM 17.1 °F 11.7 °F 12.9 °F 84% 30.12 in 10.0 mi East 3.5 mph - N/A   Clear
4:53 AM 16.0 °F 8.8 °F 12.9 °F 88% 30.12 in 10.0 mi East 4.6 mph - N/A   Clear
5:53 AM 16.0 °F 10.4 °F 12.9 °F 88% 30.12 in 10.0 mi ENE 3.5 mph - N/A   Clear
6:53 AM 16.0 °F - 12.9 °F 88% 30.12 in 10.0 mi Calm Calm - N/A   Clear
7:53 AM 15.1 °F - 12.0 °F 88% 30.13 in 10.0 mi Calm Calm - N/A   Clear
8:53 AM 19.0 °F - 17.1 °F 92% 30.14 in 9.0 mi Calm Calm - N/A   Clear
9:53 AM 21.0 °F - 19.0 °F 92% 30.14 in 10.0 mi Calm Calm - N/A   Clear
10:53 AM 24.1 °F - 21.0 °F 88% 30.14 in 10.0 mi Calm Calm - N/A   Partly Cloudy
11:53 AM 27.0 °F - 23.0 °F 85% 30.13 in 10.0 mi Calm Calm - N/A   Scattered Clouds
12:53 PM 30.0 °F - 25.0 °F 82% 30.12 in 10.0 mi Calm Calm - N/A   Mostly Cloudy
1:53 PM 35.1 °F - 28.0 °F 76% 30.10 in 10.0 mi Calm Calm - N/A   Mostly Cloudy
2:53 PM 35.1 °F 27.9 °F 27.0 °F 72% 30.09 in 10.0 mi ENE 9.2 mph - N/A   Clear
3:53 PM 30.0 °F 21.7 °F 23.0 °F 75% 30.09 in 10.0 mi ENE 9.2 mph - N/A   Clear
4:53 PM 27.0 °F 18.7 °F 21.9 °F 81% 30.11 in 10.0 mi East 8.1 mph - N/A   Clear
5:53 PM 23.0 °F 12.4 °F 19.0 °F 85% 30.11 in 10.0 mi ENE 10.4 mph - N/A   Clear
6:53 PM 21.0 °F 8.1 °F 17.1 °F 85% 30.13 in 9.0 mi ENE 13.8 mph - N/A   Clear
7:53 PM 19.9 °F 8.6 °F 16.0 °F 85% 30.13 in 8.0 mi ENE 10.4 mph - N/A   Clear
8:42 PM 19.4 °F 7.2 °F 15.8 °F 86% 30.01 in 7.0 mi ENE 11.5 mph - N/A   Scattered Clouds
8:51 PM 19.4 °F 7.2 °F 15.8 °F 86% 30.02 in 6.0 mi ENE 11.5 mph - N/A   Mostly Cloudy
8:53 PM 19.0 °F 7.5 °F 16.0 °F 88% 30.12 in 6.0 mi ENE 10.4 mph - N/A   Mostly Cloudy
9:53 PM 19.9 °F 7.9 °F 17.1 °F 89% 30.11 in 6.0 mi ENE 11.5 mph - N/A   Overcast
10:19 PM 19.4 °F 6.6 °F 17.6 °F 93% 30.00 in 7.0 mi ENE 12.7 mph - N/A   Mostly Cloudy
10:53 PM 19.0 °F 6.8 °F 16.0 °F 88% 30.10 in 8.0 mi ENE 11.5 mph - N/A   Mostly Cloudy
11:05 PM 17.6 °F 5.7 °F 15.8 °F 93% 30.00 in 8.0 mi ENE 10.4 mph - N/A   Scattered Clouds
11:33 PM 17.6 °F 4.3 °F 15.8 °F 93% 29.99 in 9.0 mi ENE 12.7 mph - N/A   Scattered Clouds
11:42 PM 17.6 °F 4.3 °F 15.8 °F 93% 29.99 in 9.0 mi ENE 12.7 mph - N/A   Mostly Cloudy
11:53 PM 18.0 °F 4.2 °F 15.1 °F 88% 30.08 in 9.0 mi ENE 13.8 mph - N/A   Overcast